Location: Curupao
(10.4996°N, 66.6442°W)
Time: 00:45:53
(UTC+00:00)

SPOT 1/Viking Rocket - Pass Details

Date: 23 May 2024
Orbit: 774 x 792 km, 98.3° (Epoch: 15 June)

Event Time Altitude Azimuth Distance (km) Brightness Sun altitude
Exits shadow 00:39:33 39° 205° (SSW) 1,161 4.3 -26.8°
Maximum altitude 00:41:08 55° 259° (WSW) 941 4.1 -27.1°
Drops below altitude 10° 00:46:10 10° 336° (NNW) 2,332 6.6 -28.2°
Sets 00:48:31 0° 341° (NNW) 3,257 7.5 -28.7°
